Regional Weather Roundup
Issued by NWS Portland, ME

Home | Current Version | Previous Version | Text Only | Print | Product List | Glossary On
Versions: 1 2 3 4 5 6 7 8 9 10 11 12 13 14 15 16 17 18 19 20 21 22 23 24 25 26 27 28 29 30 31 32 33 34 35 36 37 38 39 40 41 42 43 44 45 46 47 48 49 50
000
ASUS41 KGYX 210310
RWRGYX
WEATHER ROUNDUP FOR MAINE AND NEW HAMPSHIRE
NATIONAL WEATHER SERVICE GRAY ME
1100 PM EDT FRI OCT 20 2017

MEZ002-005-006-010-012-015-018-020-021-024-026-027-029-210400-
MAINE

CITY           SKY/WX    TMP DP  RH WIND       PRES   REMARKS
PORTLAND       CLEAR     50  34  54 W6        30.11R
SANFORD        CLEAR     42  37  82 CALM      30.12R
BAR HARBOR     CLEAR     52  36  54 NW3       30.07R
WISCASSET      CLEAR     47  38  71 CALM      30.11R
ROCKLAND       CLEAR     44  38  79 W5        30.09R
FRYEBURG       CLEAR     49  38  65 SW5       30.12R
LEWISTONAUBURN CLEAR     44  36  73 CALM      30.11R
AUGUSTA        CLEAR     54  34  46 W5        30.09R
WATERVILLE     CLEAR     47  36  65 W5        30.06R
BANGOR         CLEAR     48  36  63 SW5       30.07R
GREENVILLE       N/A     48  35  60 N14       30.03R
MILLINOCKET    CLEAR     48  35  60 N5        30.06R
HOULTON        CLEAR     45  34  65 NW7       30.02R
PRESQUE ISLE   CLEAR     42  33  70 W7        30.03R
FRENCHVILLE    CLEAR     41  30  65 NW12      30.00R
CARIBOU        CLEAR     41  32  70 W5        30.01R
$$

NHZ002-005-008-009-011-012-014-210400-
NEW HAMPSHIRE

CITY           SKY/WX    TMP DP  RH WIND       PRES   REMARKS
PORTSMOUTH     PTCLDY    56  35  46 NW7       30.11R
ROCHESTER      CLEAR     54  34  46 CALM      30.12R
NASHUA         CLEAR     48  40  73 CALM      30.16R
MANCHESTER     PTCLDY    52  40  63 CALM      30.14R
CONCORD        CLEAR     50  36  58 CALM      30.15R
LACONIA        CLEAR     50  36  58 CALM      30.15R
PLYMOUTH       FAIR      45  36  72 CALM      30.15R
BERLIN         CLEAR     39  34  82 CALM      30.13R
WHITEFIELD     CLEAR     36  33  89 CALM      30.16R
JAFFREY        CLOUDY    50  39  66 CALM      30.18R
KEENE          CLOUDY    42  38  85 CALM      30.18R
LEBANON        CLEAR     41  35  79 CALM      30.17R
MT WASHINGTON  PTCLDY    36  27  69 NW60G67     N/A
$$

VTZ005-007-008-210400-
VERMONT

CITY           SKY/WX    TMP DP  RH WIND       PRES   REMARKS
ST JOHNSBURY     N/A     43  38  82 MISG      30.14R
BURLINGTON     CLEAR     48  39  71 E3        30.16R
$$

MAZ007-012-024-CTZ003-RIZ002-NYZ038-NYZ072-210400-
SOUTHERN NEW ENGLAND AND NY

CITY           SKY/WX    TMP DP  RH WIND       PRES   REMARKS
BOSTON         CLEAR     63  35  35 NW12      30.13R
WORCESTER      CLOUDY    57  31  37 NW9       30.16R
NANTUCKET      CLEAR     60  49  66 NW10      30.11R
PROVIDENCE     PTCLDY    57  40  52 W6        30.16R
HARTFORD       PTCLDY    54  39  57 CALM      30.18R
ALBANY         CLEAR     54  34  46 NW5       30.20R
NEW YORK CITY  PTCLDY    67  42  40 NW8       30.20R
$$

ANZ081-ANZ082-ANZ150-NHZ014-MEZ023>029-210400-
COASTAL MARINE OBSERVATIONS

STATION/POSITION TIME  TEMP    WIND        PRES    WAVE
                       AIR SEA DIR/SP/G            HT/PER
                 (UTC) (F)     (DEG/KT/KT) (MB)    (FT/S)
MOUNT DESERT ROC 0300   57     310/ 11/ 12 1018.6R
MATINICUS ROCK   0200   58     330/ 15/ 16 1017.4R
ISLE OF SHOALS   0200   61     330/  4/  4 1019.1R
JEFFREYS LEDGE   0206      58                N/A     2/ 9
GEORGES BANK BUO 0150   59 58              1016.8    4/ 7
$$

.............KEY..............
   WCI - WIND CHILL
   TC  - TEMPERATURE IN CELSIUS
   VSB - VISIBILITY IN MILES
   HX  - HEAT INDEX
   FAIR- INDICATES FEW OR NO CLOUDS BELOW 12,000 FT, WITH NO
         SIGNIFICANT WEATHER AND/OR OBSTRUCTIONS TO VISIBILITY.






USA.gov is the U.S. government's official web portal to all federal, state and local government web resources and services.